Regional Weather Roundup
Issued by NWS

Home | Current Version | Previous Version | Text Only | Print | Product List | Glossary Off
Versions: 1 2 3 4 5 6 7 8 9 10 11 12 13 14 15 16 17 18 19 20 21 22 23 24 25 26 27 28 29 30 31 32 33 34 35 36 37 38 39 40 41 42 43 44 45 46 47 48 49 50

000
ASUS45 KSLC 250210
RWRUT

UTAH REGIONAL WEATHER ROUNDUP
NATIONAL WEATHER SERVICE SALT LAKE CITY UT
700 PM MST SAT JAN 24 2015

UTZ001>011-023>025-250300-

NORTHERN UTAH

CITY           SKY/WX    TMP DP  RH WIND       PRES   REMARKS
BRIGHAM CITY   CLOUDY    34  27  75 CALM      30.47F
HILL AFB       CLOUDY    34  23  64 NW6       30.45S WCI  29
LOGAN          CLOUDY    32  25  75 CALM      30.47R
OGDEN          CLOUDY    33  26  75 NW7       30.46R WCI  27
PROVO AIRPORT  MOCLDY    34  25  69 VRB3      30.47R
SALT LAKE CITY CLOUDY    35  27  72 CALM      30.45S
VERNAL         CLEAR     30  17  58 CALM      30.33F
WENDOVER       CLEAR     34  25  69 W5        30.46R WCI  30
HEBER CITY     CLOUDY    32  25  74 CALM      30.43S
WEST JORDAN    CLOUDY    37  27  65 CALM      30.46R

$$

UTZ012>022-026-027-250300-

SOUTHERN/CENTRAL UTAH

CITY           SKY/WX    TMP DP  RH WIND       PRES   REMARKS
BLANDING       CLEAR     38  17  43 S3        30.37S
BRYCE CANYON   CLEAR     31  20  63 VRB5      30.39R WCI  26
CEDAR CITY     CLEAR     35  22  58 N10       30.38R WCI  27
DELTA          MOCLDY    37  26  63 CALM      30.45R
MILFORD        CLOUDY    38  23  55 NW12      30.40F WCI  30
MOAB/CYNLANDS  CLEAR     33  20  58 CALM      30.33S
PRICE          CLEAR     32  17  54 E5        30.32F WCI  27
ST GEORGE      CLEAR     57  21  24 NE9       30.28R
KANAB          CLEAR     45  19  36 N10       30.33R

$$

REGIONAL REPORTS     COLORADO/ARIZONA

CITY           SKY/WX    TMP DP  RH WIND       PRES   REMARKS
CRAIG, CO      CLOUDY    27  20  75 SW3       30.32S
GRAND JUNCTION MOCLDY    29  19  66 NE3       30.36R
RIFLE          PTCLDY    30  16  56 S3        30.36R
MONTROSE       CLOUDY    28  12  51 E5        30.37R WCI  23
CORTEZ         CLEAR     36  14  40 SE3       30.29R
PAGE, AZ       NOT AVBL
GRAND CANYON   CLEAR     31  14  49 E3        30.31R
KINGMAN        CLEAR     48  19  31 E10       30.20R
FLAGSTAFF      CLEAR     34  11  38 E6        30.28R WCI  29

$$

REGIONAL REPORTS    NEVADA/IDAHO/WYOMING

CITY           SKY/WX    TMP DP  RH WIND       PRES   REMARKS
LAS VEGAS, NV  CLEAR     62  20  19 SE5       30.18R
ELY            CLEAR     39  22  50 NE6       30.42R WCI  35
ELKO           CLEAR     38  28  67 CALM      30.43R
POCATELLO, ID  CLOUDY    31  30  96 E5        30.43S WCI  26
BURLEY         CLOUDY    36  30  79 S5        30.40F WCI  32
EVANSTON, WY   CLOUDY    32  26  78 SW10      30.40R WCI  24
ROCK SPRINGS   PTCLDY    33  26  75 W30G37    30.28R WCI  19
KEMMERER       CLOUDY    30  28  93 W14G22    30.36R WCI  20

$$


USA.gov is the U.S. government's official web portal to all federal, state and local government web resources and services.